TimeCST,TemperatureF,Dew PointF,Humidity,Sea Level PressureIn,VisibilityMPH,Wind Direction,Wind SpeedMPH,Gust SpeedMPH,PrecipitationIn,Events,Conditions,WindDirDegrees,DateUTC
12:20 AM,26.1,17.8,71,30.33,10.0,Calm,Calm,-,N/A,,Clear,0,2014-02-24 06:20:00
12:35 AM,25.7,17.4,71,30.32,10.0,Calm,Calm,-,N/A,,Clear,0,2014-02-24 06:35:00
12:55 AM,26.6,17.2,68,30.32,10.0,Calm,Calm,-,N/A,,Clear,0,2014-02-24 06:55:00
1:15 AM,26.4,17.6,69,30.32,10.0,Calm,Calm,-,N/A,,Clear,0,2014-02-24 07:15:00
1:35 AM,26.4,17.6,69,30.32,10.0,Calm,Calm,-,N/A,,Clear,0,2014-02-24 07:35:00
1:55 AM,25.7,17.6,71,30.33,10.0,North,3.5,-,N/A,,Clear,350,2014-02-24 07:55:00
2:15 AM,25.2,17.6,73,30.33,10.0,North,3.5,-,N/A,,Clear,350,2014-02-24 08:15:00
2:35 AM,25.2,17.4,72,30.33,10.0,Calm,Calm,-,N/A,,Clear,0,2014-02-24 08:35:00
2:55 AM,24.8,18.0,75,30.33,10.0,North,3.5,-,N/A,,Clear,350,2014-02-24 08:55:00
3:15 AM,24.3,17.6,76,30.33,10.0,North,4.6,-,N/A,,Clear,350,2014-02-24 09:15:00
3:35 AM,24.3,17.6,76,30.33,10.0,North,3.5,-,N/A,,Clear,350,2014-02-24 09:35:00
3:55 AM,24.4,17.6,75,30.32,10.0,Calm,Calm,-,N/A,,Clear,0,2014-02-24 09:55:00
4:15 AM,24.3,17.8,76,30.33,10.0,Calm,Calm,-,N/A,,Clear,0,2014-02-24 10:15:00
4:35 AM,24.1,17.6,76,30.33,10.0,Calm,Calm,-,N/A,,Clear,0,2014-02-24 10:35:00
5:00 AM,23.7,17.6,77,30.33,10.0,NNW,3.5,-,N/A,,Clear,330,2014-02-24 11:00:00
5:15 AM,23.0,18.1,82,30.34,10.0,Calm,Calm,-,N/A,,Clear,0,2014-02-24 11:15:00
5:35 AM,23.5,18.3,80,30.35,10.0,NW,3.5,-,N/A,,Clear,320,2014-02-24 11:35:00
5:55 AM,22.8,17.4,80,30.34,10.0,Calm,Calm,-,N/A,,Clear,0,2014-02-24 11:55:00
6:15 AM,23.2,16.7,76,30.35,10.0,Calm,Calm,-,N/A,,Clear,0,2014-02-24 12:15:00
6:35 AM,23.0,16.3,76,30.37,10.0,NW,3.5,-,N/A,,Clear,320,2014-02-24 12:35:00
6:55 AM,21.9,16.2,78,30.38,10.0,WNW,3.5,-,N/A,,Clear,290,2014-02-24 12:55:00
7:15 AM,23.7,17.6,77,30.38,10.0,Calm,Calm,-,N/A,,Clear,0,2014-02-24 13:15:00
7:35 AM,25.3,18.1,74,30.38,10.0,NW,3.5,-,N/A,,Clear,320,2014-02-24 13:35:00
7:55 AM,25.9,17.2,70,30.38,10.0,North,6.9,-,N/A,,Clear,360,2014-02-24 13:55:00
8:15 AM,27.1,17.2,66,30.39,10.0,North,8.1,-,N/A,,Clear,360,2014-02-24 14:15:00
8:35 AM,28.0,17.6,65,30.40,10.0,North,6.9,-,N/A,,Clear,350,2014-02-24 14:35:00
8:55 AM,28.6,16.2,60,30.40,10.0,North,4.6,-,N/A,,Clear,10,2014-02-24 14:55:00
9:15 AM,30.2,16.0,56,30.40,10.0,NE,6.9,-,N/A,,Clear,40,2014-02-24 15:15:00
9:35 AM,31.5,16.2,53,30.40,10.0,NE,5.8,-,N/A,,Clear,40,2014-02-24 15:35:00
9:55 AM,31.3,15.8,53,30.39,10.0,NE,5.8,-,N/A,,Clear,40,2014-02-24 15:55:00
10:15 AM,32.0,15.3,50,30.39,10.0,ENE,4.6,-,N/A,,Clear,70,2014-02-24 16:15:00
10:35 AM,32.7,12.9,44,30.40,10.0,Calm,Calm,-,N/A,,Clear,0,2014-02-24 16:35:00
10:55 AM,33.3,11.8,41,30.40,10.0,North,4.6,-,N/A,,Clear,10,2014-02-24 16:55:00
11:15 AM,34.2,12.7,41,30.40,10.0,ENE,5.8,-,N/A,,Clear,60,2014-02-24 17:15:00
11:35 AM,34.5,12.4,40,30.40,10.0,ENE,5.8,-,N/A,,Clear,60,2014-02-24 17:35:00
11:55 AM,34.3,12.9,41,30.40,10.0,Calm,Calm,-,N/A,,Clear,0,2014-02-24 17:55:00
12:15 PM,35.2,10.4,36,30.38,10.0,NW,4.6,-,N/A,,Clear,320,2014-02-24 18:15:00
12:35 PM,35.1,11.8,38,30.37,10.0,North,5.8,-,N/A,,Clear,10,2014-02-24 18:35:00
12:55 PM,36.7,11.3,35,30.35,10.0,NE,6.9,-,N/A,,Clear,40,2014-02-24 18:55:00
1:15 PM,36.9,11.5,35,30.33,10.0,NE,10.4,-,N/A,,Clear,40,2014-02-24 19:15:00
1:35 PM,37.2,10.8,34,30.32,10.0,NNE,11.5,17.3,N/A,,Clear,30,2014-02-24 19:35:00
1:55 PM,37.2,11.8,35,30.33,10.0,North,6.9,-,N/A,,Clear,10,2014-02-24 19:55:00
2:15 PM,37.0,10.6,34,30.32,10.0,ENE,5.8,-,N/A,,Clear,60,2014-02-24 20:15:00
2:35 PM,37.4,11.3,34,30.31,10.0,North,4.6,-,N/A,,Clear,360,2014-02-24 20:35:00
2:55 PM,37.2,10.2,33,30.31,10.0,NE,5.8,-,N/A,,Clear,40,2014-02-24 20:55:00
3:15 PM,37.4,11.8,35,30.30,10.0,NE,6.9,-,N/A,,Clear,40,2014-02-24 21:15:00
3:35 PM,37.4,10.6,33,30.31,10.0,North,4.6,-,N/A,,Clear,10,2014-02-24 21:35:00
3:55 PM,37.4,10.8,33,30.29,10.0,ENE,5.8,-,N/A,,Clear,60,2014-02-24 21:55:00
4:15 PM,37.0,11.7,35,30.28,10.0,East,5.8,-,N/A,,Clear,80,2014-02-24 22:15:00
4:35 PM,36.7,13.8,39,30.28,10.0,ENE,5.8,-,N/A,,Clear,60,2014-02-24 22:35:00
4:55 PM,36.1,14.7,42,30.27,10.0,ENE,6.9,-,N/A,,Clear,60,2014-02-24 22:55:00
5:15 PM,35.4,14.2,42,30.27,10.0,NE,9.2,-,N/A,,Clear,50,2014-02-24 23:15:00
5:35 PM,33.8,15.4,47,30.26,10.0,NE,6.9,-,N/A,,Clear,50,2014-02-24 23:35:00
5:55 PM,33.1,16.5,51,30.26,10.0,NE,5.8,-,N/A,,Clear,50,2014-02-24 23:55:00
6:15 PM,32.2,16.7,53,30.27,10.0,NNE,4.6,-,N/A,,Clear,30,2014-02-25 00:15:00
6:35 PM,31.8,17.1,55,30.27,10.0,NNE,4.6,-,N/A,,Clear,20,2014-02-25 00:35:00
6:55 PM,31.3,17.4,57,30.27,10.0,NNE,4.6,-,N/A,,Clear,20,2014-02-25 00:55:00
7:15 PM,30.2,18.3,61,30.27,10.0,NNE,5.8,-,N/A,,Clear,30,2014-02-25 01:15:00
7:35 PM,30.9,18.0,59,30.27,10.0,NNE,6.9,-,N/A,,Scattered Clouds,30,2014-02-25 01:35:00
7:55 PM,30.2,17.8,60,30.27,10.0,NE,5.8,-,N/A,,Scattered Clouds,40,2014-02-25 01:55:00
8:15 PM,30.2,18.3,61,30.26,10.0,NNE,8.1,-,N/A,,Scattered Clouds,30,2014-02-25 02:15:00
8:35 PM,30.0,18.5,62,30.26,10.0,NE,6.9,-,N/A,,Scattered Clouds,40,2014-02-25 02:35:00
8:55 PM,30.9,18.5,60,30.26,10.0,NE,8.1,-,N/A,,Mostly Cloudy,40,2014-02-25 02:55:00
9:15 PM,31.1,18.5,60,30.26,10.0,NE,8.1,-,N/A,,Overcast,40,2014-02-25 03:15:00
9:35 PM,30.9,18.5,60,30.26,10.0,NE,6.9,-,N/A,,Overcast,40,2014-02-25 03:35:00
9:55 PM,30.9,18.1,59,30.26,10.0,NE,6.9,-,N/A,,Overcast,40,2014-02-25 03:55:00
10:15 PM,30.9,17.8,58,30.25,10.0,NNE,5.8,-,N/A,,Overcast,30,2014-02-25 04:15:00
10:35 PM,30.7,17.6,58,30.25,10.0,NNE,5.8,-,N/A,,Overcast,30,2014-02-25 04:35:00
10:55 PM,30.7,18.0,59,30.25,10.0,NNE,6.9,-,N/A,,Overcast,20,2014-02-25 04:55:00
11:15 PM,30.2,18.5,62,30.25,10.0,North,5.8,-,N/A,,Overcast,10,2014-02-25 05:15:00
11:35 PM,30.2,18.0,60,30.24,10.0,NE,4.6,-,N/A,,Overcast,40,2014-02-25 05:35:00
11:55 PM,30.2,18.3,61,30.24,10.0,ENE,3.5,-,N/A,,Overcast,60,2014-02-25 05:55:00